[Iaude] MPEC U80: 2023 UW [a=0.91,e=0.18,i=8.5,H=27.9]

mpec at marsden.cfa.harvard.edu mpec at marsden.cfa.harvard.edu
Wed Oct 18 10:03:52 EDT 2023


M.P.E.C. 2023-U80                              Issued 2023 October 18, 14:02 UT

     The Minor Planet Electronic Circulars contain information on unusual
         minor planets, routine data on comets and natural satellites,
         and occasional editorial announcements.  They are published
    on behalf of Division F of the International Astronomical Union by the
          Minor Planet Center, Smithsonian Astrophysical Observatory,
                          Cambridge, MA 02138, U.S.A.
			  
             Prepared using the Tamkin Foundation Computer Network

                              MPC at CFA.HARVARD.EDU
            URL https://www.minorplanetcenter.net/    ISSN 1523-6714

                                    2023 UW                                     


Observations:
     K23U00W* C2023 10 17.43444003 24 25.175+14 02 39.27         20.08wXEU080F51
     K23U00W  C2023 10 17.46021803 24 00.102+14 13 17.86         20.15wXEU080F51
     K23U00W  C2023 10 17.47326503 23 47.163+14 18 43.25         20.37wXEU080F51
     K23U00W  C2023 10 17.61666603 21 22.298+15 18 36.36               VEU080F51
     K23U00W  C2023 10 17.61678803 21 22.165+15 18 39.41               VEU080F51
     K23U00W  C2023 10 17.61768803 21 21.272+15 19 02.27         19.95GVEU080F51
     K23U00W  C2023 10 17.61833103 21 20.627+15 19 18.46         19.73GVEU080F51
     K23U00W KC2023 10 17.65019503 21 07.89 +15 42 05.8          20.0 GVEU080474
     K23U00W KC2023 10 17.65174003 21 06.30 +15 42 45.0          19.5 GVEU080474
     K23U00W KC2023 10 17.65328703 21 04.77 +15 43 25.4          20.2 GVEU080474
     K23U00W KC2023 10 17.65483403 21 03.23 +15 44 05.3          20.0 GVEU080474
     K23U00W KC2023 10 17.65638003 21 01.69 +15 44 44.9          20.0 GVEU080474
     K23U00W  C2023 10 17.96578 03 16 43.21 +18 05 37.3          19.8 GVEU080M28
     K23U00W  C2023 10 17.96783 03 16 40.76 +18 06 37.1          19.7 GVEU080M28
     K23U00W KC2023 10 17.98746503 16 20.85 +18 04 29.5          19.7 GVEU080L01
     K23U00W KC2023 10 17.98894603 16 19.16 +18 05 12.9          19.6 GVEU080L01
     K23U00W KC2023 10 17.99042403 16 17.44 +18 05 55.7          19.5 GVEU080L01
     K23U00W KC2023 10 17.99190103 16 15.76 +18 06 39.3          19.7 GVEU080L01
     K23U00W KC2023 10 17.99366203 16 13.80 +18 07 31.0          19.9 GVEU080L01
     K23U00W KC2023 10 18.02026003 15 45.269+18 19 20.57         19.9 GXEU080G01
     K23U00W KC2023 10 18.02342403 15 41.854+18 20 52.08         21.1 GXEU080G01
     K23U00W  C2023 10 18.39827 03 08 55.11 +21 38 07.2          20.0 GVEU080V00
     K23U00W  C2023 10 18.40379 03 08 47.48 +21 41 07.6          20.6 GVEU080V00
     K23U00W  C2023 10 18.40929 03 08 39.86 +21 44 07.2                VEU080V00
     K23U00W  C2023 10 18.41480 03 08 32.23 +21 47 06.8          20.4 GVEU080V00

Observer details:
474 Mount John Observatory, Lake Tekapo.  Observers A. C. Gilmore, P. M.
    Kilmartin.  Measurer P. M. Kilmartin.  1.0-m f/7.7 reflector + CCD.
F51 Pan-STARRS 1, Haleakala.  Observers J. Bulger, T. Lowe, P. Minguez, A.
    Schultz, I. Smith.  Measurers K. Chambers, T. de Boer, J. Fairlamb, H.
    Gao, M. Huber, C.-C. Lin, E. Magnier, Y. Ramanjooloo, R. Wainscoat, R.
    Weryk.  1.8-m Ritchey-Chretien + CCD.
G01 Universitaetssternwarte Oldenburg.  Observer T. Hoffmann.  0.40-m f/5.8
    Ritchey-Chretien + CCD.
L01 Visnjan Observatory, Tican.  Observer K. Korlevic.  1.0-m f/2.9 reflector
    + CCD.
M28 Lesedi Telescope-SAAO Observatory, Sutherland.  Observers N. Erasmus, S.
    Potter, C. van Gend, S. Chandra, H. Worters.  Measurers T. Ngwane, N.
    Erasmus.  1.0-m f/8 Reflector + CCD.
V00 Kitt Peak-Bok.  Observer R. A. Mastaler.  Measurers M. J. Brucker, C. E.
    Woodward, D. Fay, J. B. Fazekas, D. C. Fuls, A. R. Gibbs, H. Groeller, J.
    K. Hogan, R. A. Kowalski, S. M. Larson, C. Lejoly, G. J. Leonard, R. A.
    Mastaler, R. S. McMillan, D. Rankin, R. L. Seaman, A. Serrano, F. C.
    Shelly, K. W. Wierzchos.  2.25-m reflector + mosaic CCD.

Orbital elements:
2023 UW                                                  Earth MOID = 0.0105 AU
Epoch 2023 Sept. 13.0 TT = JDT 2460200.5                Bell                    
M 196.51811              (2000.0)            P               Q                  
n   1.14444558     Peri.  138.31690     -0.95209081     -0.29962957             
a   0.9051890      Node    24.45166     +0.22657408     -0.82552492             
e   0.1769097      Incl.    8.50225     +0.20539542     -0.47825801             
P   0.86           H   27.97          G   0.15           U   7                  
Residuals in seconds of arc
231017 F51  0.3+  0.5+    231017 474  0.0   0.5+    231017 L01  0.8+  0.6-
231017 F51  0.4+  0.0     231017 474  0.2+  0.3+    231018 G01  2.3-  0.1-
231017 F51  0.2-  1.2+    231017 474  0.3+  0.3-    231018 G01  0.1-  1.4-
231017 F51  0.3+  0.5-    231017 M28  0.9-  0.2-    231018 V00  0.0   0.2+
231017 F51  0.2+  0.5-    231017 M28  2.0-  0.0     231018 V00  0.1+  0.4+
231017 F51  0.3+  0.4-    231017 L01  0.8+  1.4-    231018 V00  0.1+  0.3+
231017 F51  0.2+  0.4-    231017 L01  0.7+  1.2-    231018 V00  0.2+  0.1-
231017 474  0.4+  1.1+    231017 L01  0.1+  1.5-
231017 474  0.2-  0.2+    231017 L01  0.1+  0.9-

Ephemeris:
2023 UW                  a,e,i = 0.91, 0.18, 9                   q = 0.7451
Date    TT    R. A. (2000) Decl.     Delta      r    Elong.  Phase     V
2023 09 18    04 03 44.0 -16 11 34   0.1153  1.0566   113.7    60.6    25.6
...
2023 10 03    04 08 07.3 -12 50 27   0.06408 1.0383   124.3    52.8    24.0
...
2023 10 11    04 00 03.9 -06 28 23   0.03693 1.0245   133.9    44.6    22.6
...
2023 10 17    03 29 20.8 +11 18 15   0.01808 1.0125   149.4    30.1    20.6
2023 10 18    03 16 02.7 +18 14 32   0.01545 1.0103   152.6    27.0    20.2
2023 10 19    02 55 45.5 +27 39 20   0.01320 1.0081   153.4    26.2    19.8
...
2023 10 25    18 29 01.4 +54 52 07   0.01684 0.9941    87.7    91.3    22.3
...
2023 11 02    17 01 46.4 +34 35 33   0.04147 0.9733    61.4   116.5    25.6
...
2023 11 17    16 37 08.7 +25 16 34   0.09155 0.9292    47.3   128.6    28.2

M. P. C. Staff               (C) Copyright 2023 MPC           M.P.E.C. 2023-U80





More information about the Iaude mailing list